TimeEST,TemperatureF,Dew PointF,Humidity,Sea Level PressureIn,VisibilityMPH,Wind Direction,Wind SpeedMPH,Gust SpeedMPH,PrecipitationIn,Events,Conditions,WindDirDegrees,DateUTC
12:55 AM,60.3,57.0,89,30.09,10.0,NW,6.9,-,N/A,,Clear,310,2012-11-25 05:55:00
1:55 AM,59.4,55.8,88,30.09,10.0,NW,6.9,-,N/A,,Clear,320,2012-11-25 06:55:00
2:55 AM,58.5,55.0,88,30.08,10.0,NW,8.1,-,N/A,,Clear,320,2012-11-25 07:55:00
3:55 AM,56.7,52.7,87,30.08,10.0,NW,4.6,-,N/A,,Clear,320,2012-11-25 08:55:00
4:55 AM,55.2,50.9,85,30.08,10.0,NNW,3.5,-,N/A,,Clear,330,2012-11-25 09:55:00
5:55 AM,53.4,49.6,87,30.09,10.0,NW,6.9,-,N/A,,Clear,320,2012-11-25 10:55:00
6:55 AM,53.1,49.1,86,30.10,10.0,NW,4.6,-,N/A,,Clear,320,2012-11-25 11:55:00
7:55 AM,55.6,51.1,85,30.12,10.0,NW,8.1,-,N/A,,Clear,320,2012-11-25 12:55:00
8:55 AM,59.2,52.9,80,30.14,10.0,NW,6.9,-,N/A,,Clear,320,2012-11-25 13:55:00
9:55 AM,64.4,54.9,71,30.15,10.0,Calm,Calm,-,N/A,,Clear,0,2012-11-25 14:55:00
10:55 AM,70.0,56.5,62,30.15,10.0,West,5.8,-,N/A,,Clear,280,2012-11-25 15:55:00
11:55 AM,74.1,55.0,51,30.13,10.0,NNW,6.9,-,N/A,,Clear,340,2012-11-25 16:55:00
12:55 PM,74.7,54.1,49,30.11,10.0,NNW,4.6,-,N/A,,Clear,340,2012-11-25 17:55:00
1:55 PM,75.2,57.4,54,30.09,8.0,ENE,6.9,-,N/A,,Clear,70,2012-11-25 18:55:00
2:55 PM,74.3,55.8,52,30.08,10.0,East,6.9,-,N/A,,Clear,100,2012-11-25 19:55:00
3:55 PM,73.8,55.9,54,30.09,10.0,ESE,6.9,-,N/A,,Clear,120,2012-11-25 20:55:00
5:55 PM,67.3,59.4,76,30.10,10.0,Calm,Calm,-,N/A,,Clear,0,2012-11-25 22:55:00
6:55 PM,63.0,59.2,87,30.12,10.0,Calm,Calm,-,N/A,,Clear,0,2012-11-25 23:55:00
7:55 PM,61.0,58.5,91,30.13,10.0,Calm,Calm,-,N/A,,Clear,0,2012-11-26 00:55:00
8:55 PM,60.6,57.6,90,30.14,10.0,Calm,Calm,-,N/A,,Clear,0,2012-11-26 01:55:00
9:55 PM,59.2,57.4,94,30.15,10.0,Calm,Calm,-,N/A,,Clear,0,2012-11-26 02:55:00
10:55 PM,58.6,56.1,91,30.15,10.0,Calm,Calm,-,N/A,,Clear,0,2012-11-26 03:55:00
11:55 PM,59.0,56.3,91,30.15,10.0,Calm,Calm,-,N/A,,Clear,0,2012-11-26 04:55:00